Merced, CA

4:45 PM PDT on March 25, 2017 (GMT -0700)
Merced Municipal-Macready

Weather History for KMCE - October, 2012

Change the Weather History Date:

Friday, October 26, 2012

  Actual Average Record
Temperature  
Mean Temperature 60 °F 60 °F  
Max Temperature 72 °F 74 °F 88 °F (1965)
Min Temperature 47 °F 46 °F 39 °F (2006)
Degree Days  
Heating Degree Days 5    
Month to date heating degree days 46  
Since 1 July heating degree days 46  
Cooling Degree Days 0    
Month to date cooling degree days 107  
Year to date cooling degree days 1960  
Growing Degree Days 8 (Base 50)    
Moisture  
Dew Point 40 °F    
Average Humidity 52    
Maximum Humidity 76    
Minimum Humidity 27    
Precipitation  
Precipitation 0.00 in 0.04 in 1.44 in (2000)
Month to date precipitation 0.23 0.54  
Year to date precipitation 5.78 9.53  
Since 1 July precipitation 0.27  
Snow  
Snow 0.00 in - - ()
Month to date snowfall 0.0  
Since 1 July snowfall 0.0  
Since 1 September snowfall 0.0  
Snow Depth 0.00 in    
Sea Level Pressure  
Sea Level Pressure 30.15 in    
Wind  
Wind Speed 4 mph (NW)    
Max Wind Speed 10 mph    
Max Gust Speed 26 mph    
Visibility 10 miles    
Events      
T = Trace of Precipitation, MM = Missing Value Source: NWS Daily Summary

Daily Weather History Graph

Daily Weather History Graph

Search for Another Location

Airport or City:

Trip Planner

Search our weather history database for the weather conditions in past years. The results will help you decide how hot, cold, wet, or windy it might be!

Date:

Astronomy

Oct. 26, 2012 Rise Set
Actual Time 7:21 AM PDT 6:10 PM PDT
Civil Twilight 6:54 AM PDT 6:36 PM PDT
Nautical Twilight 6:23 AM PDT 7:07 PM PDT
Astronomical Twilight 5:53 AM PDT 7:37 PM PDT
Moon 4:26 PM PDT (10/26) 4:25 AM PDT (10/26)
Length of Visible Light 11h 42m
Length of Day
10h 49m
Waxing Gibbous, 91% of the Moon is Illuminated
Oct 26
Waxing Gibbous
Oct 29
Full
Nov 6
Last Quarter
Nov 13
New
Nov 20
First Quarter

Hourly Weather History & Observations

Time (PDT) Temp. Dew Point Humidity Pressure Visibility Wind Dir Wind Speed Gust Speed Precip Events Conditions
12:53 AM 54.0 °F 42.1 °F 64% 30.19 in 10.0 mi WNW 3.5 mph - N/A   Clear
1:53 AM 52.0 °F 39.9 °F 63% 30.19 in 10.0 mi NW 3.5 mph - N/A   Clear
2:53 AM 51.1 °F 39.9 °F 66% 30.19 in 10.0 mi WNW 3.5 mph - N/A   Clear
3:53 AM 48.0 °F 39.0 °F 71% 30.19 in 10.0 mi NNW 3.5 mph - N/A   Clear
4:53 AM 48.0 °F 37.9 °F 68% 30.19 in 10.0 mi West 4.6 mph - N/A   Clear
6:53 AM 46.9 °F 39.0 °F 74% 30.19 in 10.0 mi NNW 5.8 mph - N/A   Clear
7:53 AM 48.0 °F 39.0 °F 71% 30.20 in 10.0 mi North 6.9 mph - N/A   Clear
8:53 AM 51.1 °F 39.9 °F 66% 30.22 in 10.0 mi North 8.1 mph - N/A   Clear
9:53 AM 55.0 °F 41.0 °F 59% 30.22 in 10.0 mi North 9.2 mph - N/A   Clear
10:53 AM 59.0 °F 43.0 °F 55% 30.22 in 10.0 mi Variable 5.8 mph - N/A   Clear
11:53 AM 63.0 °F 45.0 °F 52% 30.20 in 10.0 mi Calm Calm - N/A   Clear
12:53 PM 66.0 °F 46.0 °F 48% 30.17 in 10.0 mi NW 4.6 mph - N/A   Clear
1:53 PM 69.1 °F 46.0 °F 44% 30.14 in 10.0 mi Variable 5.8 mph - N/A   Clear
2:53 PM 71.1 °F 45.0 °F 39% 30.11 in 10.0 mi NNW 8.1 mph - N/A   Clear
3:53 PM 71.1 °F 39.0 °F 31% 30.09 in 10.0 mi NW 8.1 mph - N/A   Clear
4:53 PM 71.1 °F 36.0 °F 28% 30.08 in 10.0 mi NNW 6.9 mph - N/A   Clear
5:53 PM 68.0 °F 37.9 °F 33% 30.09 in 10.0 mi NW 6.9 mph - N/A   Clear
6:53 PM 64.0 °F 39.0 °F 40% 30.10 in 10.0 mi Calm Calm - N/A   Clear
7:53 PM 61.0 °F 39.9 °F 46% 30.10 in 10.0 mi NW 3.5 mph 26.5 mph N/A   Clear
8:53 PM 61.0 °F 39.9 °F 46% 30.09 in 10.0 mi Calm Calm - N/A   Clear
9:53 PM 57.0 °F 37.9 °F 49% 30.09 in 10.0 mi Calm Calm - N/A   Clear
10:53 PM 54.0 °F 39.0 °F 57% 30.09 in 7.0 mi Calm Calm - N/A   Clear
11:53 PM 54.0 °F 39.0 °F 57% 30.09 in 9.0 mi Calm Calm - N/A   Clear